AO-07 1 07530U 74089B 14365.96416624 -.00000045 00000-0 -66673-5 0 1570 2 07530 101.4991 341.4640 0011635 269.4368 124.4812 12.53610824836302 FO-29 1 24278U 96046B 15001.49607435 -.00000018 00000-0 15201-4 0 5475 2 24278 098.5207 353.0106 0351239 143.0074 016.7622 13.53040027907483 SO-33 1 25509U 98061B 15001.66873963 .00000349 00000-0 58479-4 0 9140 2 25509 031.4319 115.5772 0348469 053.6253 086.8606 14.29789416845574 RS-22 1 27939U 03042A 15001.93484858 .00001279 00000-0 24313-3 0 1813 2 27939 097.8205 171.4445 0012714 193.1190 166.9680 14.65681489601834 HO-68 1 36122U 09072B 15001.71443184 -.00000060 00000-0 -43517-4 0 2637 2 36122 100.2208 052.2836 0007849 143.0503 217.1162 13.16322296242552 AO-73 1 39444U 13066AE 15001.69133335 .00002132 00000-0 28455-3 0 3461 2 39444 097.7537 070.4616 0059726 318.9522 040.7203 14.79379227 58793 EO-79 1 40025U 14033R 15001.77869231 .00003506 00000-0 40408-3 0 5799 2 40025 097.9668 261.7450 0013974 014.0577 346.0987 14.86284966 29070 UO-11 1 14781U 84021B 15001.69778514 .00000806 00000-0 10794-3 0 7042 2 14781 097.8259 062.7028 0007471 248.7523 111.2893 14.82058887657361 AO-16 1 20439U 90005D 15001.06479462 .00000165 00000-0 76840-4 0 2070 2 20439 098.5278 299.8511 0009716 296.6088 126.0985 14.32465240302812 LO-19 1 20442U 90005G 14365.80154298 .00000136 00000-0 65988-4 0 1400 2 20442 098.4987 299.6531 0010609 284.3987 075.6019 14.32662038302975 AO-27 1 22825U 93061C 15001.46476574 .00000135 00000-0 69835-4 0 8564 2 22825 098.6890 311.7310 0009512 079.8819 059.1377 14.29813053109116 IO-26 1 22826U 93061D 15001.46095179 .00000148 00000-0 74299-4 0 6138 2 22826 098.6832 311.9168 0009978 072.6948 287.5325 14.30122828109256 GO-32 1 25397U 98043D 15001.46707808 .00000057 00000-0 43793-4 0 5344 2 25397 098.4989 317.3409 0002443 097.3920 041.0118 14.23503472856077 NO-44 1 26931U 01043C 14365.88536819 .00000115 00000-0 76328-4 0 7878 2 26931 067.0509 248.6198 0007065 268.7981 091.2311 14.30231740691870 SO-50 1 27607U 02058C 15001.94439528 .00001197 00000-0 17300-3 0 6201 2 27607 064.5567 346.2513 0070040 321.6127 038.0495 14.74319118646772 CO-55 1 27844U 03031E 14365.69898668 .00000313 00000-0 16243-3 0 1056 2 27844 098.6967 011.6228 0010582 068.8416 344.9769 14.21673202596641 CO-57 1 27848U 03031J 14365.55033095 .00000252 00000-0 13535-3 0 445 2 27848 098.7063 011.2950 0010574 075.8377 044.7953 14.21338367596534 AO-51 1 28375U 04025K 15001.66394472 .00000207 00000-0 73759-4 0 281 2 28375 098.2763 307.0652 0084172 112.4523 248.5608 14.41543540552506 CP3 1 31129U 07012N 15001.17151890 .00000993 00000-0 22457-3 0 9371 2 31129 097.9598 334.4478 0098804 114.0244 013.5919 14.55307152408826 CO-65 1 32785U 08021C 15001.17602971 .00001770 00000-0 20744-3 0 1544 2 32785 097.6735 050.7540 0012293 255.2217 141.3214 14.86173727361424 PRISM 1 33493U 09002B 15001.89313325 .00007059 00000-0 70786-3 0 6320 2 33493 098.2521 191.3382 0017070 152.5990 207.6108 14.91565568321778 SOHLA-1 1 33496U 09002E 14365.95106650 .00000497 00000-0 89001-4 0 5513 2 33496 098.1908 127.6794 0005572 345.0100 154.4792 14.71121452318585 TISAT-1 1 36799U 10035E 15001.23073587 .00003461 00000-0 39006-3 0 8203 2 36799 098.0168 099.8704 0013888 039.4807 017.6910 14.87219580242135 STUDSAT 1 36801U 10035G 15001.20914503 .00018235 00000-0 13203-2 0 9707 2 36801 098.0517 112.6087 0006431 344.1509 075.0353 15.04031943242804 ALMASAT-1 1 38078U 12006B 15001.87568157 .00019991 00000-0 38071-3 0 2533 2 38078 069.4612 295.4735 0531087 125.9144 239.3014 14.65005738150569 XATCOBEO 1 38082U 12006F 14243.34478676 .13583328 43697-5 37939-3 0 5637 2 38082 069.3815 097.0364 0033293 225.1799 135.4582 16.41261006136239 CUBEBUG-1 1 39153U 13018D 15001.17267325 .00001463 00000-0 20676-3 0 7596 2 39153 098.0300 086.0193 0018753 074.7090 285.6192 14.78563028 90793 ESTCUBE-1 1 39161U 13021C 15001.74387300 .00002074 00000-0 34857-3 0 8077 2 39161 098.0851 086.1070 0010659 121.0792 239.1416 14.70658081 88774 DUCHIFAT-1 1 40021U 14033M 15001.68020699 .00004579 00000-0 51935-3 0 5824 2 40021 097.9672 261.7617 0014553 015.3145 344.8510 14.86772258 29057 NANOSATCBR1 1 40024U 14033Q 15001.90140035 .00004260 00000-0 48677-3 0 5724 2 40024 097.9658 261.8968 0013652 014.0370 346.1214 14.86520916 29080 DTUSAT-2 1 40030U 14033W 15001.76076861 .00003393 00000-0 39507-3 0 5650 2 40030 097.9661 261.5931 0012912 009.3416 350.8024 14.85893721 29069 ANTELSAT 1 40034U 14033AA 15001.88713178 .00002980 00000-0 46918-3 0 5808 2 40034 097.9621 257.4714 0060027 293.0488 066.4396 14.72043353 28822 MET-2/21 1 22782U 93055A 15001.19162833 .00000033 00000-0 16344-4 0 2635 2 22782 082.5482 016.1890 0023464 071.7006 340.4547 13.83755783 77503 OKEAN-4 1 23317U 94066A 15001.09773845 .00001001 00000-0 11090-3 0 7489 2 23317 082.5374 242.3050 0020930 159.7187 356.2682 14.86177315 92494 NOAA-14 1 23455U 94089A 15001.56848304 .00000057 00000-0 53077-4 0 375 2 23455 098.7653 086.3670 0009577 188.9083 283.7616 14.14013417 31984 NOAA-15 1 25338U 98030A 15001.88551451 .00000325 00000-0 13739-3 0 4772 2 25338 098.7645 000.4931 0009947 294.0101 066.0523 14.25541830865357 RESURS 1 25394U 98043A 15001.53481613 .00000048 00000-0 38890-4 0 8448 2 25394 098.4432 322.8404 0002269 068.1828 043.7184 14.24431693856553 FENGYUN1 1 25730U 99025A 14365.73547547 .00002839 00000-0 15490-2 0 3327 2 25730 098.9298 325.8521 0019970 274.6694 206.6982 14.12801368805408 OKEAN-0 1 25860U 99039A 15001.60648137 .00000744 00000-0 11632-3 0 4562 2 25860 098.0722 329.6467 0001922 111.6782 307.2619 14.75709682831412 NOAA-16 1 26536U 00055A 15001.84105631 .00000042 00000-0 22708-4 0 9750 2 26536 098.9661 067.8087 0010287 348.5000 011.6415 14.13067337736163 NOAA-17 1 27453U 02032A 15001.86283351 .00000126 00000-0 53987-4 0 8670 2 27453 098.3261 356.2317 0010990 315.9746 044.1044 14.24839293650972 NOAA-18 1 28654U 05018A 15001.91414368 .00000129 00000-0 70347-4 0 3881 2 28654 099.1699 350.6323 0015225 067.7572 292.5690 14.12128153495617 NOAA-19 1 33591U 09005A 15001.84390441 .00000262 00000-0 14327-3 0 5193 2 33591 098.9684 311.5179 0013478 280.5294 079.4828 14.11845207304005 HUBBLE 1 20580U 90037B 14365.90106583 .00002059 00000-0 12419-3 0 1915 2 20580 028.4687 176.5490 0002625 243.1761 246.5781 15.06549281154557 ISS 1 25544U 98067A 15001.90620712 .00012362 00000-0 20217-3 0 6642 2 25544 051.6456 193.9106 0007121 197.4499 315.2103 15.52915813922167 CO-58 1 28895U 05043F 14365.51388300 .00000998 00000-0 20556-3 0 9583 2 28895 097.8213 197.0606 0018508 106.9905 253.3328 14.62384456489083 FALCON 1 30776U 07006E 14365.38522416 .00012016 00000-0 54061-3 0 390 2 30776 035.4294 329.9439 0004493 242.6460 251.8088 15.20354865430711 MAST 1 31126U 07012K 15001.19968846 .00000760 00000-0 17383-3 0 2419 2 31126 097.9395 337.0685 0092894 096.8179 331.5239 14.55701136409193 CAPE1 1 31130U 07012P 14365.48660679 .00000957 00000-0 21783-3 0 2463 2 31130 097.9611 333.3133 0099410 117.7382 243.3941 14.55016710408495 COMPASS 1 32787U 08021E 15001.67589927 .00004207 00000-0 44725-3 0 1415 2 32787 097.6763 054.3924 0012201 241.5613 118.4376 14.89450061361718 AAUSAT2 1 32788U 08021F 15001.10701337 .00003530 00000-0 36816-3 0 1279 2 32788 097.6777 055.0874 0011711 241.4945 118.5094 14.90338008361703 DO-64 1 32789U 08021G 15001.17401203 .00008760 00000-0 76875-3 0 1747 2 32789 097.6969 063.7650 0010959 220.7710 201.5547 14.96801580362071 CO-66 1 32791U 08021J 15001.42377469 .00001942 00000-0 21825-3 0 1249 2 32791 097.6754 052.4618 0012900 248.2127 111.7717 14.87790329361517 RS-30 1 32953U 08025A 15001.79077377 .00000010 00000-0 -13620-7 0 6090 2 32953 082.5047 077.7271 0019405 084.8579 275.4715 12.43054557299930 METEOR-M 1 35865U 09049A 15001.72911874 .00000156 00000-0 89678-4 0 2161 2 35865 098.5231 047.8477 0001749 234.7370 125.3645 14.21975051274555 RS-38 1 35869U 09049E 15001.79450233 .00000086 00000-0 57678-4 0 1244 2 35869 098.5163 047.6213 0003732 236.3050 123.7756 14.22260352274609 JUGNU 1 37839U 11058B 14365.72683362 .00000424 00000-0 84835-4 0 7643 2 37839 019.9612 137.6328 0019240 001.1128 132.2659 14.12400361166518 SRMSAT 1 37841U 11058D 14365.71458251 .00000377 00000-0 62263-4 0 7684 2 37841 019.9712 161.0073 0011958 293.9696 190.4777 14.10425460166274 RAX-2 1 37853U 11061D 15001.20390247 .00013257 00000-0 84920-3 0 28 2 37853 101.7038 130.6886 0205676 202.8743 232.5162 14.92964641172166 AUBIESAT 1 37854U 11061E 14365.93682142 .00016039 00000-0 98650-3 0 14 2 37854 101.7094 132.9233 0202386 199.5135 280.9675 14.94701944172200 HRBE 1 37855U 11061F 15001.34099337 .00014374 00000-0 89929-3 0 228 2 37855 101.7076 132.5406 0205327 200.4564 158.8330 14.93771542172217 RS-39 1 38051U 11062C 14288.65876392 .70201582 12497-4 27925-2 0 413 2 38051 051.5964 324.1908 0006422 269.6897 186.8903 16.43533377153081 E-STAR 1 38079U 12006C 15001.82938381 .00600559 13690-3 14032-2 0 1468 2 38079 069.4213 168.3676 0115556 056.0427 305.1662 15.85974047153909 GOLIAT 1 38085U 12006J 15001.94386976 .00248034 20689-4 11883-2 0 6824 2 38085 069.4280 182.7753 0183995 064.3378 095.9654 15.61800251153549 HORYU-2 1 38340U 12025D 15001.45562499 .00001946 00000-0 30731-3 0 605 2 38340 098.2916 327.4019 0010687 266.4424 093.5561 14.73514808140972 RS-40 1 38735U 12041C 15001.43998431 .00000040 00000-0 21992-3 0 9116 2 38735 082.4751 163.9395 0017025 182.9199 177.1780 12.42565960110200 PROITERES 1 38756U 12047B 15001.39235258 .00001521 00000-0 23131-3 0 5513 2 38756 098.2224 097.9322 0013414 109.5346 250.7287 14.75446393124409 BEESAT-3 1 39134U 13015E 15001.91959481 .00004227 00000-0 26257-3 0 8105 2 39134 064.8737 228.2131 0035250 274.3840 085.3763 15.08912555 93587 BEESAT-2 1 39136U 13015G 15001.02670085 .00006119 00000-0 40397-3 0 7864 2 39136 064.8737 232.3032 0035928 274.8877 084.8142 15.07789289 93436 LO-75 1 39382U 13064C 14295.69194059 .07301741 00000-0 36367-2 0 4875 2 39382 040.4713 030.2705 0002289 341.7175 018.4586 16.19795749470823 ZACUBE-1 1 39417U 13066B 15001.13425270 .00001567 00000-0 21288-3 0 5035 2 39417 097.7536 069.8054 0060195 321.2795 038.4109 14.78997562 59934 TRITON-1 1 39427U 13066M 14365.75883338 .00001071 00000-0 18510-3 0 3547 2 39427 097.7397 061.2048 0116072 341.9263 017.7830 14.66087731 59334 DELFIN3XT 1 39428U 13066N 15001.41918848 .00002098 00000-0 36183-3 0 3595 2 39428 097.7399 060.4863 0125581 343.5068 016.2067 14.64447629 59328 GOMX-1 1 39430U 13066Q 15001.76541923 .00001807 00000-0 34622-3 0 1289 2 39430 097.7340 056.7378 0155196 354.1758 005.7627 14.57512908 59134 MO-76 1 39436U 13066W 15001.15633108 .00022107 00000-0 18693-2 0 4520 2 39436 097.7623 077.3409 0021819 312.6117 047.3265 14.97882650 60411 LO-74 1 39440U 13066AA 15001.70862373 .00001297 00000-0 19525-3 0 3515 2 39440 097.7478 067.0878 0081941 326.1162 033.4827 14.73872166 59808 PUCPSAT-1 1 39442U 13066AC 15001.66010893 .00003080 00000-0 34290-3 0 3523 2 39442 097.7603 075.4630 0032622 313.8959 045.9565 14.87458894 59101 SHINAISAT 1 39572U 14009A 14328.13084988 .28848087 76253-5 66603-3 0 4474 2 39572 064.9728 197.0096 0013534 259.7861 100.1802 16.45181032 42403 TEIKYOSAT 1 39576U 14009E 14297.85867254 .09345816 76764-5 25176-3 0 4374 2 39576 064.9818 300.5833 0008491 317.3597 044.3862 16.45008906 37698 CO-77 1 39577U 14009F 14244.78324653 .10543803 76292-5 32273-3 0 3795 2 39577 064.9920 123.7668 0014904 269.7208 091.1897 16.43552757 29380 SPROUT 1 39770U 14029E 14365.84718488 .00002152 00000-0 26935-3 0 2394 2 39770 097.8722 100.0488 0010612 034.4392 325.7501 14.83273055 32825 POPSAT-HIP1 1 40028U 14033U 15001.93481669 .00003232 00000-0 37438-3 0 6016 2 40028 097.9693 261.9422 0015236 011.5343 348.6181 14.86121488 29082 EO-80 1 40032U 14033Y 15001.76414037 .00003452 00000-0 40212-3 0 5845 2 40032 097.9658 261.6035 0013002 007.7923 352.3471 14.85859053 29062 VELOX-1 1 40057U 14034E 15001.91193112 .00003280 00000-0 49533-3 0 5921 2 40057 098.2341 077.2724 0012247 053.8971 306.3314 14.74962177 27369 DAURIA DX 1 1 40071U 14037C 15001.42772968 .00001619 00000-0 22154-3 0 5618 2 40071 098.3799 065.8539 0009798 058.2159 301.9997 14.79975049 26122 UKUBE-1 1 40074U 14037F 15001.43937172 .00003352 00000-0 43654-3 0 5627 2 40074 098.3812 066.1850 0005891 066.8666 293.3149 14.81321344 26140 CHASQUI-1 1 40117U 98067ET 15001.90827877 .00464951 00000-0 12877-2 0 4113 2 40117 051.6297 181.4038 0008043 231.4884 128.5891 15.92999184221359 HODOYOSHI-1 1 40299U 14070B 15001.42952811 .00005631 00000-0 28208-3 0 1759 2 40299 097.4705 085.1202 0013765 000.5586 062.2760 15.17695325 8502 CHUBUSAT-1 1 40300U 14070C 15001.45368566 .00006405 00000-0 33806-3 0 1775 2 40300 097.4685 084.9500 0023197 357.1668 132.2816 15.15646436 8509 QSAT-EOS 1 40301U 14070D 15001.41206971 .00011084 00000-0 61355-3 0 1918 2 40301 097.4658 084.6814 0034418 355.3677 135.2075 15.13496049 8481 TSUBAME 1 40302U 14070E 15001.89838512 .00007517 00000-0 44428-3 0 1854 2 40302 097.4630 084.9327 0044847 353.8045 139.5064 15.10909212 8532 /EX
